| time (UTC) | temp F | wind direction | speed MPH | gust MPH | rain 1hr in | rain 24hr in | rain mn in | humidity % | barometer mb |
| 20260509024448 | 59 | 172 | 0.0 | 4.0 | 0.00 | 0.00 | 0.00 | 79 | 1014.1 |
| 20260509023445 | 60 | 161 | 0.0 | 3.0 | 0.00 | 0.00 | 0.00 | 79 | 1014.1 |
| 20260509022420 | 60 | 140 | 0.0 | 3.0 | 0.00 | 0.00 | 0.00 | 78 | 1014.0 |
| 20260509021436 | 61 | 120 | 0.0 | 2.0 | 0.00 | 0.00 | 0.00 | 77 | 1013.9 |
| 20260509020457 | 62 | 85 | 0.0 | 1.0 | 0.00 | 0.00 | 0.00 | 76 | 1013.8 |
| 20260509015447 | 62 | 119 | 0.0 | 5.0 | 0.00 | 0.00 | 0.00 | 76 | 1013.8 |
| 20260509014440 | 63 | 155 | 0.0 | 5.0 | 0.00 | 0.00 | 0.00 | 75 | 1013.8 |
| 20260509013431 | 63 | 183 | 0.0 | 5.0 | 0.00 | 0.00 | 0.00 | 75 | 1013.9 |
| 20260509012449 | 63 | 172 | 1.0 | 5.0 | 0.00 | 0.00 | 0.00 | 74 | 1014.0 |
| 20260509011416 | 64 | 147 | 0.0 | 3.0 | 0.00 | 0.00 | 0.00 | 73 | 1014.0 |
| 20260509010357 | 65 | 188 | 0.0 | 4.0 | 0.00 | 0.00 | 0.00 | 73 | 1014.1 |
| 20260509005327 | 65 | 135 | 0.0 | 4.0 | 0.00 | 0.00 | 0.00 | 73 | 1014.3 |
| 20260509004252 | 65 | 123 | 0.0 | 4.0 | 0.00 | 0.00 | 0.00 | 72 | 1014.2 |
| 20260509003220 | 66 | 202 | 0.0 | 6.0 | 0.00 | 0.00 | 0.00 | 70 | 1014.2 |
| 20260509002216 | 66 | 153 | 1.0 | 6.0 | 0.00 | 0.00 | 0.00 | 70 | 1014.3 |
| 20260509001213 | 67 | 90 | 0.0 | 5.0 | 0.00 | 0.00 | 0.00 | 71 | 1014.4 |
| 20260509000235 | 67 | 238 | 1.0 | 5.0 | 0.00 | 0.00 | 0.00 | 69 | 1014.4 |
| 20260508235249 | 67 | 118 | 0.0 | 4.0 | 0.00 | 0.00 | 0.00 | 70 | 1014.5 |
| 20260508234242 | 67 | 207 | 1.0 | 6.0 | 0.00 | 0.00 | 0.00 | 70 | 1014.4 |
| 20260508232129 | 68 | 122 | 1.0 | 5.0 | 0.00 | 0.00 | 0.00 | 69 | 1014.6 |
| 20260508231142 | 68 | 180 | 1.0 | 7.0 | 0.00 | 0.00 | 0.00 | 68 | 1014.8 |
| 20260508230149 | 68 | 171 | 1.0 | 7.0 | 0.00 | 0.00 | 0.00 | 67 | 1014.9 |
| 20260508225142 | 68 | 190 | 1.0 | 6.0 | 0.00 | 0.00 | 0.00 | 68 | 1015.0 |
| 20260508224145 | 69 | 147 | 0.0 | 4.0 | 0.00 | 0.00 | 0.00 | 68 | 1015.1 |
| 20260508221941 | 68 | 213 | 1.0 | 6.0 | 0.00 | 0.00 | 0.00 | 68 | 1015.4 |
| 20260508220925 | 68 | 117 | 2.0 | 8.0 | 0.00 | 0.00 | 0.00 | 69 | 1015.6 |
| 20260508214723 | 69 | 124 | 2.0 | 5.0 | 0.00 | 0.00 | 0.00 | 66 | 1015.8 |
| 20260508213740 | 69 | 188 | 1.0 | 7.0 | 0.00 | 0.00 | 0.00 | 67 | 1015.8 |
| 20260508212750 | 69 | 159 | 1.0 | 7.0 | 0.00 | 0.00 | 0.00 | 68 | 1016.0 |
| 20260508211747 | 68 | 94 | 1.0 | 5.0 | 0.00 | 0.00 | 0.00 | 69 | 1016.2 |
| 20260508210754 | 69 | 149 | 1.0 | 5.0 | 0.00 | 0.00 | 0.00 | 68 | 1016.3 |
| 20260508204623 | 68 | 190 | 1.0 | 8.0 | 0.00 | 0.00 | 0.00 | 70 | 1016.4 |
| 20260508203551 | 68 | 142 | 2.0 | 8.0 | 0.00 | 0.00 | 0.00 | 69 | 1016.5 |
| 20260508202553 | 68 | 199 | 1.0 | 6.0 | 0.00 | 0.00 | 0.00 | 69 | 1016.5 |
| 20260508201559 | 67 | 167 | 1.0 | 6.0 | 0.00 | 0.00 | 0.00 | 71 | 1016.5 |
| 20260508200551 | 66 | 84 | 1.0 | 6.0 | 0.00 | 0.00 | 0.00 | 72 | 1016.6 |
| 20260508194333 | 65 | 61 | 1.0 | 6.0 | 0.00 | 0.00 | 0.00 | 71 | 1016.7 |
| 20260508192143 | 64 | 184 | 1.0 | 5.0 | 0.00 | 0.00 | 0.00 | 74 | 1016.9 |
| 20260508191156 | 64 | 191 | 0.0 | 4.0 | 0.00 | 0.00 | 0.00 | 74 | 1016.9 |
| 20260508185040 | 64 | 171 | 1.0 | 6.0 | 0.00 | 0.00 | 0.00 | 75 | 1017.1 |
| 20260508184053 | 64 | 168 | 0.0 | 7.0 | 0.00 | 0.00 | 0.00 | 75 | 1017.0 |
| 20260508180723 | 63 | 181 | 1.0 | 7.0 | 0.00 | 0.00 | 0.00 | 75 | 1017.0 |
| 20260508175714 | 61 | 133 | 2.0 | 7.0 | 0.00 | 0.00 | 0.00 | 75 | 1017.1 |
| 20260508174649 | 62 | 130 | 1.0 | 5.0 | 0.00 | 0.00 | 0.00 | 76 | 1017.2 |
| 20260508173658 | 61 | 185 | 1.0 | 5.0 | 0.00 | 0.00 | 0.00 | 76 | 1017.2 |
| 20260508172634 | 60 | 136 | 1.0 | 5.0 | 0.00 | 0.00 | 0.00 | 76 | 1017.2 |
| 20260508171616 | 59 | 201 | 1.0 | 4.0 | 0.00 | 0.00 | 0.00 | 77 | 1017.2 |
| 20260508165505 | 59 | 135 | 1.0 | 6.0 | 0.00 | 0.00 | 0.00 | 79 | 1017.1 |
| 20260508164454 | 59 | 169 | 1.0 | 6.0 | 0.00 | 0.00 | 0.00 | 80 | 1017.0 |
| 20260508163430 | 58 | 151 | 1.0 | 4.0 | 0.00 | 0.00 | 0.00 | 82 | 1017.0 |
| 20260508162407 | 57 | 165 | 0.0 | 3.0 | 0.00 | 0.00 | 0.00 | 84 | 1017.0 |
| 20260508161333 | 56 | 144 | 1.0 | 5.0 | 0.00 | 0.00 | 0.00 | 84 | 1016.9 |
| 20260508160321 | 55 | 175 | 0.0 | 5.0 | 0.00 | 0.00 | 0.00 | 86 | 1017.1 |
| 20260508155335 | 54 | 181 | 0.0 | 4.0 | 0.00 | 0.00 | 0.00 | 86 | 1017.0 |
| 20260508154353 | 54 | 154 | 1.0 | 4.0 | 0.00 | 0.00 | 0.00 | 86 | 1017.1 |
| 20260508153319 | 54 | 171 | 1.0 | 4.0 | 0.00 | 0.00 | 0.00 | 87 | 1017.0 |
| 20260508151216 | 53 | 190 | 0.0 | 6.0 | 0.00 | 0.00 | 0.00 | 87 | 1017.0 |
| 20260508150159 | 53 | 178 | 1.0 | 7.0 | 0.00 | 0.00 | 0.00 | 87 | 1016.9 |
| 20260508145208 | 53 | 159 | 1.0 | 7.0 | 0.00 | 0.00 | 0.00 | 87 | 1016.9 |
| 20260508143051 | 53 | 153 | 0.0 | 3.0 | 0.00 | 0.00 | 0.00 | 88 | 1016.8 |
| 20260508142024 | 53 | 147 | 0.0 | 5.0 | 0.00 | 0.00 | 0.00 | 88 | 1016.8 |
| 20260508141012 | 52 | 168 | 0.0 | 5.0 | 0.00 | 0.00 | 0.00 | 88 | 1016.7 |
| 20260508140004 | 52 | 172 | 0.0 | 7.0 | 0.00 | 0.00 | 0.00 | 88 | 1016.7 |
| 20260508135004 | 52 | 101 | 1.0 | 7.0 | 0.00 | 0.00 | 0.00 | 88 | 1016.6 |
| 20260508134001 | 52 | 198 | 0.0 | 4.0 | 0.00 | 0.00 | 0.00 | 89 | 1016.4 |
| 20260508133016 | 52 | 194 | 1.0 | 5.0 | 0.00 | 0.00 | 0.00 | 89 | 1016.3 |
| 20260508132030 | 52 | 193 | 0.0 | 5.0 | 0.00 | 0.00 | 0.00 | 89 | 1016.3 |
| 20260508131050 | 52 | 182 | 0.0 | 4.0 | 0.00 | 0.00 | 0.00 | 89 | 1016.3 |
| 20260508130017 | 52 | 190 | 0.0 | 5.0 | 0.00 | 0.00 | 0.00 | 88 | 1016.4 |
| 20260508124956 | 52 | 199 | 0.0 | 5.0 | 0.00 | 0.00 | 0.00 | 89 | 1016.2 |
| 20260508123956 | 52 | 163 | 0.0 | 3.0 | 0.00 | 0.00 | 0.00 | 89 | 1016.2 |
| 20260508123003 | 52 | 161 | 0.0 | 3.0 | 0.00 | 0.00 | 0.00 | 89 | 1016.2 |
| 20260508121929 | 52 | 126 | 0.0 | 2.0 | 0.00 | 0.00 | 0.00 | 88 | 1016.3 |
| 20260508115807 | 52 | 161 | 0.0 | 3.0 | 0.00 | 0.00 | 0.00 | 89 | 1016.3 |
| 20260508114751 | 53 | 148 | 0.0 | 3.0 | 0.00 | 0.00 | 0.00 | 89 | 1016.3 |
| 20260508113807 | 52 | 115 | 0.0 | 3.0 | 0.00 | 0.00 | 0.00 | 89 | 1016.2 |
| 20260508112831 | 53 | 144 | 0.0 | 4.0 | 0.00 | 0.00 | 0.00 | 89 | 1016.3 |
| 20260508110707 | 52 | 157 | 0.0 | 5.0 | 0.00 | 0.00 | 0.00 | 89 | 1016.2 |
| 20260508105732 | 53 | 183 | 0.0 | 3.0 | 0.00 | 0.00 | 0.00 | 89 | 1016.1 |
| 20260508104753 | 52 | 96 | 0.0 | 3.0 | 0.00 | 0.00 | 0.00 | 89 | 1016.2 |
| 20260508103731 | 52 | 159 | 0.0 | 6.0 | 0.00 | 0.00 | 0.00 | 89 | 1016.2 |
| 20260508102737 | 53 | 175 | 1.0 | 6.0 | 0.00 | 0.00 | 0.00 | 89 | 1016.2 |
| 20260508101719 | 53 | 187 | 0.0 | 2.0 | 0.00 | 0.00 | 0.00 | 89 | 1016.1 |
| 20260508100739 | 52 | 155 | 0.0 | 6.0 | 0.00 | 0.00 | 0.00 | 89 | 1016.2 |
| 20260508095720 | 52 | 173 | 1.0 | 6.0 | 0.00 | 0.00 | 0.00 | 88 | 1016.2 |
| 20260508094716 | 52 | 167 | 1.0 | 4.0 | 0.00 | 0.00 | 0.00 | 89 | 1016.2 |
| 20260508093642 | 52 | 130 | 1.0 | 4.0 | 0.00 | 0.00 | 0.00 | 89 | 1016.2 |
| 20260508092614 | 52 | 165 | 0.0 | 3.0 | 0.00 | 0.00 | 0.00 | 89 | 1016.3 |
| 20260508091542 | 53 | 205 | 0.0 | 6.0 | 0.00 | 0.00 | 0.00 | 89 | 1016.2 |
| 20260508090546 | 52 | 69 | 0.0 | 6.0 | 0.00 | 0.00 | 0.00 | 88 | 1016.2 |
| 20260508085546 | 52 | 112 | 1.0 | 5.0 | 0.00 | 0.00 | 0.00 | 89 | 1016.2 |
| 20260508084553 | 53 | 221 | 1.0 | 5.0 | 0.00 | 0.00 | 0.00 | 89 | 1016.2 |
| 20260508083538 | 53 | 161 | 0.0 | 5.0 | 0.00 | 0.00 | 0.00 | 89 | 1016.2 |
| 20260508081355 | 53 | 142 | 0.0 | 3.0 | 0.00 | 0.00 | 0.00 | 88 | 1016.3 |
| 20260508075251 | 53 | 163 | 0.0 | 2.0 | 0.00 | 0.00 | 0.00 | 89 | 1016.3 |
| 20260508074303 | 53 | 197 | 1.0 | 4.0 | 0.00 | 0.00 | 0.00 | 89 | 1016.2 |
| 20260508073246 | 54 | 146 | 1.0 | 7.0 | 0.00 | 0.00 | 0.00 | 89 | 1016.2 |
| 20260508072223 | 53 | 149 | 0.0 | 4.0 | 0.00 | 0.00 | 0.00 | 89 | 1016.1 |
| 20260508070051 | 54 | 172 | 1.0 | 8.0 | 0.00 | 0.00 | 0.00 | 89 | 1016.1 |
| 20260508065030 | 54 | 177 | 0.0 | 3.0 | 0.00 | 0.00 | 0.00 | 89 | 1016.2 |
| 20260508064004 | 54 | 150 | 1.0 | 4.0 | 0.00 | 0.00 | 0.00 | 89 | 1016.3 |
| 20260508061818 | 54 | 196 | 1.0 | 6.0 | 0.00 | 0.00 | 0.00 | 89 | 1016.2 |
| 20260508060759 | 54 | 42 | 1.0 | 6.0 | 0.00 | 0.00 | 0.00 | 89 | 1016.1 |
| 20260508052315 | 55 | 167 | 1.0 | 4.0 | 0.00 | 0.00 | 0.00 | 89 | 1016.1 |
| 20260508051330 | 55 | 156 | 1.0 | 4.0 | 0.00 | 0.00 | 0.00 | 88 | 1016.1 |
| 20260508050324 | 55 | 169 | 0.0 | 3.0 | 0.00 | 0.00 | 0.00 | 88 | 1016.1 |
| 20260508045306 | 55 | 198 | 1.0 | 3.0 | 0.00 | 0.00 | 0.00 | 88 | 1016.1 |
| 20260508044248 | 55 | 163 | 0.0 | 5.0 | 0.00 | 0.00 | 0.00 | 87 | 1015.9 |
| 20260508043221 | 56 | 178 | 0.0 | 5.0 | 0.00 | 0.00 | 0.00 | 87 | 1015.8 |
| 20260508041100 | 56 | 184 | 0.0 | 4.0 | 0.00 | 0.00 | 0.00 | 86 | 1015.6 |
| 20260508040047 | 56 | 155 | 0.0 | 3.0 | 0.00 | 0.00 | 0.00 | 86 | 1015.5 |
| 20260508035042 | 56 | 172 | 0.0 | 3.0 | 0.00 | 0.00 | 0.00 | 86 | 1015.4 |
| 20260508034030 | 57 | 165 | 0.0 | 7.0 | 0.00 | 0.00 | 0.00 | 85 | 1015.2 |
| 20260508031924 | 58 | 181 | 1.0 | 6.0 | 0.00 | 0.00 | 0.00 | 83 | 1015.0 |
| 20260508030913 | 59 | 193 | 1.0 | 5.0 | 0.00 | 0.00 | 0.00 | 82 | 1014.9 |
| 20260508025855 | 59 | 176 | 1.0 | 3.0 | 0.00 | 0.00 | 0.00 | 81 | 1014.9 |